Regional Weather Roundup
Issued by NWS State College, PA

Home | Current Version | Previous Version | Text Only | Print | Product List | Glossary On
Versions: 1 2 3 4 5 6 7 8 9 10 11 12 13 14 15 16 17 18 19 20 21 22 23 24 25 26 27 28 29 30 31 32 33 34 35 36 37 38 39 40 41 42 43 44 45 46 47 48 49 50
000
ASUS41 KCTP 210210
RWRCTP

REGIONAL WEATHER ROUNDUP
NATIONAL WEATHER SERVICE STATE COLLEGE PA
1000 PM EDT WED AUG 20 2014

Note: "fair" indicates few or no clouds below 12,000 feet with no
significant weather and/or obstructions to visibility.

* = STATION THAT DOES NOT REPORT PRECIPITATION /E.G. RAIN...SNOW...ETC/
    THUNDER OR FOG.

PAZ002>004-007>009-013>016-020>023-029>032-210300-
WESTERN PENNSYLVANIA

CITY           SKY/WX    TMP DP  RH WIND       PRES   REMARKS
ERIE           PTCLDY    70  65  84 S8        29.93R
MEADVILLE      CLEAR     66  63  90 CALM      29.98R
FRANKLIN*      CLEAR     64  63  94 SE3       30.00R
NEW CASTLE     NOT AVBL
BEAVER COUNTY  NOT AVBL
BUTLER*        MOCLDY    70  64  83 CALM      30.01R
PITTSBURGH INT PTCLDY    68  66  93 CALM      29.99R
PITTSBURGH     PTCLDY    70  63  78 S8        29.99R
INDIANA*       CLOUDY    70  68  94 CALM      30.03S
LATROBE        CLEAR     72  70  94 SW6       30.00R
WASHINGTON CO* PTCLDY    66  64  94 SW3       30.00S
$$

PAZ004>006-010>012-017>019-024>028-033>037-041-042-045-046-049>053-210300-
CENTRAL PENNSYLVANIA

CITY           SKY/WX    TMP DP  RH WIND       PRES   REMARKS
BRADFORD       CLOUDY    68  64  87 CALM      30.01R
DUBOIS         CLOUDY    67  63  87 CALM      30.01R THUNDER
CLEARFIELD     MOCLDY    69  67  93 S3        30.01R
JOHNSTOWN      CLOUDY    71  63  75 S3        30.05R
ALTOONA        PTCLDY    70  68  93 S5        30.03R
STATE COLLEGE  CLOUDY    69  67  93 CALM      30.01R
WILLIAMSPORT   MOCLDY    73  66  78 E12       29.97R
SELINSGROVE    PTCLDY    66  65  96 CALM      29.99S FOG
FT INDIANTOWN  CLOUDY    69  69 100 VRB2      30.00R
CAPITAL CITY   CLOUDY    69  66  90 CALM      29.99R
HARRISBURG     MOCLDY    73  68  84 VRB3      29.99R
YORK           CLOUDY    66  64  93 CALM      30.00R
$$

PAZ038>040-043-044-047-048-054-055-060>062-067>071-210300-
EASTERN PENNSYLVANIA

CITY           SKY/WX    TMP DP  RH WIND       PRES   REMARKS
SCRANTON       CLOUDY    73  64  73 S3        29.99F
MOUNT POCONO   CLOUDY    69  63  81 S5        30.05S
ALLENTOWN      CLOUDY    77  64  64 S3        29.99S
QUAKERTOWN*    CLOUDY    75  64  69 MISG      30.01S
READING        CLOUDY    77  65  66 S6        29.98R
LANCASTER      CLOUDY    73  63  70 S5        30.00R
COATESVILLE    CLOUDY    72  64  78 SE3       30.02R
POTTSTOWN      CLOUDY    75  62  64 S6        30.01S
BLUE BELL      CLOUDY    73  64  73 CALM      29.99S
DOYLESTOWN     CLOUDY    71  63  75 S5        30.00S
WILLOW GROVE   NOT AVBL
NORTH PHILA    MOCLDY    73  61  65 S3        30.02S
PHILADELPHIA   CLOUDY    74  61  63 SE6       30.00S
$$


USA.gov is the U.S. government's official web portal to all federal, state and local government web resources and services.